Regional Weather Roundup
Issued by NWS Green Bay, WI

Home | Current Version | Previous Version | Graphics & Text | Print | Product List | Glossary Off
Versions: 1 2 3 4 5 6 7 8 9 10 11 12 13 14 15 16 17 18 19 20 21 22 23 24 25 26 27 28 29 30 31 32 33 34 35 36 37 38 39 40 41 42 43 44 45 46 47 48 49 50

000
ASUS43 KGRB 270011
RWRGRB

NORTH-CENTRAL AND NORTHEAST WISCONSIN REGIONAL WEATHER ROUNDUP
NATIONAL WEATHER SERVICE GREEN BAY WI
700 PM CDT MON JUN 26 2017

WIZ005-009-010>012-018-019-270100-
NORTH CENTRAL WISCONSIN

CITY           SKY/WX    TMP DP  RH WIND       PRES   REMARKS
IRONWOOD       SUNNY     61  45  55 W9        30.04S
MANITOWISH WTR MOSUNNY   62  44  52 NW12G18   30.04S
ARBOR VITAE    SUNNY     60  44  57 NW6       30.03S
EAGLE RIVER    SUNNY     60  39  45 NW8       30.03S
LAND O LAKES   SUNNY     62  40  45 NW7       30.05S
RHINELANDER    SUNNY     62  42  47 VRB6      30.04F
PHILLIPS       PTSUNNY   59  51  76 W6        30.05F
ANTIGO         SUNNY     60  46  58 N7        30.05S
TOMAHAWK       NOT AVBL
MERRILL        MOSUNNY   65  44  47 NW8       30.05S
$$

WIZ013-073-270100-
NORTHEAST WISCONSIN

CITY           SKY/WX    TMP DP  RH WIND       PRES   REMARKS
IRON MOUNTAIN  SUNNY     63  43  48 NW6       30.00F
MARINETTE      MOSUNNY   60  50  69 VRB5      30.02S
OCONTO         MOSUNNY   59  53  79 N5        30.02S
$$

WIZ017-030-035>037-045-270100-
CENTRAL WISCONSIN

CITY           SKY/WX    TMP DP  RH WIND       PRES   REMARKS
MEDFORD        SUNNY     60  47  62 NW7       30.07F
WAUSAU         MOSUNNY   63  43  48 NW5       30.03F
MOSINEE        NOT AVBL
MARSHFIELD     LGT RAIN  60  47  61 NW10G22   30.06S
WISC RAPIDS    SUNNY     66  46  48 NW7       30.07S
STEVENS POINT  SUNNY     62  43  49 NW7       30.06S
WAUPACA        SUNNY     66  43  43 N7        30.05S
SHAWANO        PTSUNNY   64  47  55 N7        30.04S
CLINTONVILLE   MOSUNNY   63  43  48 N7        30.04S
WAUTOMA        SUNNY     64  45  49 N7        30.06S
$$

WIZ038-039-048-051-270100-
FOX VALLEY

CITY           SKY/WX    TMP DP  RH WIND       PRES   REMARKS
NWS GREEN BAY  CLOUDY    59  56  89 NW7       30.04S
APPLETON       PTSUNNY   57  46  67 N8        30.03S
OSHKOSH        CLOUDY    61  47  59 N9        30.04S
FOND DU LAC    PTSUNNY   61  46  57 N9        30.05S
$$

WIZ022-050-052-270100-
EAST CENTRAL WISCONSIN

CITY           SKY/WX    TMP DP  RH WIND       PRES   REMARKS
EPHRAIM        FAIR      57  50  77 NW3       30.00S
WASHINGTON ISL FAIR      59  50  72 NW7       29.99S
STURGEON BAY     N/A     58  50  75 NW9         N/A
MANITOWOC      PTSUNNY   59  50  72 NW13G22   30.03R
SHEBOYGAN      MOSUNNY   58  53  84 NW13      30.02S
$$

LMZ563-521-522-541>543-270100-
LAKESHORE

STATION/POSITION TIME  TEMP    WIND        PRES    VSBY  WAVE
                       AIR SEA DIR/SP/G                  HT/PER
                 (UTC) (F)     (DEG/KT/KT) (MB)    (MI)  (FT/S)
SHEBOYGAN LKSHOR 0000   59     310/ 14/ 19 1016.4F
KEWAUNEE LKSHORE 2348   58     340/  6/ 12 1016.2R
NORTHPORT PIER   2340   60     330/  5/  8 1015.9R
N MID LAKE BUOY  2350   56 56  320/  8/ 10 1016.1R         2/ 4
S GREEN BAY BUOY 0000   59     300/  8/  8 1016.3
CHAMBERS ISLAND  2340   62     280/  3/  6 1015.6S
MENOMINEE LKSHOR 2348          310/  6/ 11 1015.5R
$$




USA.gov is the U.S. government's official web portal to all federal, state and local government web resources and services.